Weather History for Volk, WI

Change the Weather History Date:

Saturday, December 29, 2012

  Actual Average Record
Temperature  
Mean Temperature 12 °F -  
Max Temperature 23 °F 23 °F 50 °F (1999)
Min Temperature 1 °F 12 °F -13 °F (2013)
Degree Days  
Heating Degree Days 53    
Moisture  
Dew Point 12 °F    
Average Humidity 87    
Maximum Humidity 93    
Minimum Humidity 78    
Precipitation  
Precipitation 0.00 in - - ()
Snow  
Snow 0.00 in - - ()
Snow Depth 11.00 in    
Sea Level Pressure  
Sea Level Pressure 30.07 in    
Wind  
Wind Speed 7 mph (West)    
Max Wind Speed 16 mph    
Max Gust Speed -    
Visibility 8 miles    
Events Fog , Snow    
Averages and records for this station are not official NWS values.
T = Trace of Precipitation, MM = Missing Value Source: NWS Daily Summary

Daily Weather History Graph

Daily Weather History Graph

Search for Another Location

Airport:

Trip Planner

Search our weather history database for the weather conditions in past years. The results will help you decide how hot, cold, wet, or windy it might be!

Date:

Astronomy

Dec. 29, 2012 Rise Set
Actual Time 7:35 AM CST 4:31 PM CST
Civil Twilight 7:02 AM CST 5:04 PM CST
Nautical Twilight 6:25 AM CST 5:40 PM CST
Astronomical Twilight 5:50 AM CST 6:16 PM CST
Moon 6:08 PM CST (12/29) 8:05 AM CST (12/29)
Length of Visible Light 10h 02m
Length of Day
8h 56m
Full, 98% of the Moon is Illuminated
Dec 29
Full
Jan 4
Last Quarter
Jan 11
New
Jan 18
First Quarter
Jan 26
Full

Hourly Weather History & Observations

Time (CST) Temp. Windchill Dew Point Humidity Pressure Visibility Wind Dir Wind Speed Gust Speed Precip Events Conditions
12:55 AM 21.9 °F 15.7 °F 19.9 °F 92% 29.96 in 10.0 mi WNW 4.6 mph - N/A   Overcast
1:41 AM 21.2 °F 13.6 °F 19.4 °F 93% 29.96 in 10.0 mi WNW 5.8 mph - N/A Snow Light Snow
1:46 AM 21.2 °F 13.6 °F 19.4 °F 93% 29.96 in 10.0 mi WNW 5.8 mph - N/A   Overcast
1:55 AM 21.7 °F 14.3 °F 19.8 °F 92% 29.96 in 10.0 mi WNW 5.8 mph - 0.00 in   Overcast
2:42 AM 21.2 °F 12.6 °F 19.4 °F 93% 29.96 in 10.0 mi WNW 6.9 mph - N/A Snow Light Snow
2:55 AM 21.9 °F 13.4 °F 19.8 °F 91% 29.96 in 10.0 mi WNW 6.9 mph - 0.00 in Snow Light Snow
3:13 AM 21.2 °F 12.6 °F 19.4 °F 93% 29.96 in 10.0 mi WNW 6.9 mph - N/A Snow Light Snow
3:30 AM 21.2 °F 12.6 °F 19.4 °F 93% 29.96 in 10.0 mi WNW 6.9 mph - N/A   Overcast
3:55 AM 21.7 °F 12.3 °F 19.2 °F 90% 29.97 in 10.0 mi WNW 8.1 mph - 0.00 in   Overcast
4:03 AM 21.2 °F 12.6 °F 19.4 °F 93% 29.97 in 10.0 mi WNW 6.9 mph - N/A Snow Light Snow
4:55 AM 21.4 °F 11.1 °F 18.9 °F 90% 29.97 in 10.0 mi WNW 9.2 mph - 0.00 in Snow Light Snow
4:56 AM 21.2 °F 11.7 °F 19.4 °F 93% 29.97 in 10.0 mi WNW 8.1 mph - N/A   Overcast
5:11 AM 21.2 °F 10.9 °F 19.4 °F 93% 29.97 in 10.0 mi WNW 9.2 mph - N/A Snow Light Snow
5:46 AM 21.2 °F 10.9 °F 19.4 °F 93% 29.98 in 10.0 mi WNW 9.2 mph - N/A Snow Light Snow
5:55 AM 20.8 °F 11.2 °F 18.5 °F 91% 29.99 in 10.0 mi WNW 8.1 mph - 0.00 in Snow Light Snow
6:07 AM 21.2 °F 11.7 °F 17.6 °F 86% 29.99 in 8.0 mi WNW 8.1 mph - N/A Snow Light Snow
6:09 AM 21.2 °F 10.9 °F 17.6 °F 86% 29.99 in 8.0 mi WNW 9.2 mph - N/A Snow Light Snow
6:11 AM 21.2 °F 11.7 °F 17.6 °F 86% 29.99 in 8.0 mi WNW 8.1 mph - N/A Snow Light Snow
6:55 AM 20.5 °F 9.2 °F 17.8 °F 89% 30.00 in 5.0 mi WNW 10.4 mph - 0.00 in Snow Light Snow
7:20 AM 19.4 °F 7.2 °F 17.6 °F 93% 30.00 in 5.0 mi WNW 11.5 mph - N/A Snow Light Snow
7:55 AM 19.9 °F 8.6 °F 17.2 °F 89% 30.01 in 6.0 mi WNW 10.4 mph - 0.00 in Snow Light Snow
8:55 AM 19.4 °F 6.6 °F 15.8 °F 86% 30.03 in 7.0 mi WNW 12.7 mph - N/A Snow Light Snow
9:43 AM 19.4 °F 6.0 °F 15.8 °F 86% 30.00 in 10.0 mi WNW 13.8 mph - N/A   Overcast
9:55 AM 19.4 °F 7.2 °F 15.8 °F 86% 30.05 in 10.0 mi WNW 11.5 mph - N/A   Overcast
10:31 AM 21.2 °F 10.1 °F 15.8 °F 80% 30.01 in 10.0 mi WNW 10.4 mph - N/A Snow Light Snow
10:55 AM 21.2 °F 8.9 °F 17.6 °F 86% 30.05 in 10.0 mi WNW 12.7 mph - N/A   Overcast
11:23 AM 23.0 °F 11.7 °F 17.6 °F 80% 30.00 in 10.0 mi WNW 11.5 mph - N/A   Overcast
11:55 AM 21.2 °F 7.3 °F 17.6 °F 86% 30.05 in 10.0 mi West 16.1 mph - N/A   Overcast
12:55 PM 21.2 °F 8.3 °F 16.0 °F 80% 30.06 in 10.0 mi WNW 13.8 mph - N/A   Overcast
1:35 PM 21.2 °F 8.9 °F 15.8 °F 80% 30.06 in 10.0 mi WNW 12.7 mph - N/A   Overcast
1:55 PM 21.0 °F 8.1 °F 15.3 °F 78% 30.06 in 10.0 mi NW 13.8 mph - N/A   Overcast
2:55 PM 20.8 °F 7.9 °F 15.3 °F 79% 30.08 in 10.0 mi West 13.8 mph - N/A   Overcast
3:55 PM 19.9 °F 9.3 °F 14.2 °F 78% 30.10 in 10.0 mi WNW 9.2 mph - N/A   Overcast
4:55 PM 19.9 °F 8.6 °F 14.4 °F 79% 30.12 in 10.0 mi West 10.4 mph - N/A   Overcast
5:55 PM 18.9 °F 8.8 °F 12.9 °F 78% 30.13 in 10.0 mi West 8.1 mph - N/A   Overcast
6:55 PM 14.0 °F - 10.0 °F 84% 30.15 in 10.0 mi Calm Calm - N/A   Overcast
7:08 PM 12.2 °F 6.1 °F 10.4 °F 92% 30.15 in 10.0 mi WSW 3.5 mph - N/A   Scattered Clouds
7:55 PM 6.3 °F -0.7 °F 2.8 °F 86% 30.17 in 6.0 mi WSW 3.5 mph - N/A   Clear
8:31 PM 3.2 °F -6.2 °F -0.4 °F 85% 30.18 in 10.0 mi WSW 4.6 mph - N/A   Mostly Cloudy
8:35 PM 5.0 °F -2.1 °F 1.4 °F 85% 30.18 in 10.0 mi WSW 3.5 mph - N/A   Scattered Clouds
8:55 PM 3.9 °F - 0.7 °F 86% 30.18 in 10.0 mi Calm Calm - N/A   Partly Cloudy
9:19 PM 3.2 °F - -0.4 °F 85% 30.18 in 2.5 mi Calm Calm - N/A   Clear
9:20 PM 3.2 °F - -0.4 °F 85% 30.17 in 2.0 mi Calm Calm - N/A   Clear
9:21 PM 3.2 °F - -0.4 °F 85% 30.18 in 1.5 mi Calm Calm - N/A   Clear
9:22 PM 3.2 °F - -0.4 °F 85% 30.18 in 1.0 mi Calm Calm - N/A   Clear
9:23 PM 3.2 °F - -0.4 °F 85% 30.18 in 0.8 mi Calm Calm - N/A   Clear
9:25 PM 3.2 °F - -0.4 °F 85% 30.18 in 0.5 mi Calm Calm - N/A Fog Light Freezing Fog
9:28 PM 3.2 °F - -2.2 °F 78% 30.18 in 0.2 mi Calm Calm - N/A Fog Light Freezing Fog
9:39 PM 1.4 °F - -2.2 °F 85% 30.18 in 0.5 mi Calm Calm - N/A Fog Light Freezing Fog
9:42 PM 3.2 °F -4.2 °F -0.4 °F 85% 30.18 in 0.8 mi SSW 3.5 mph - N/A   Scattered Clouds
9:44 PM 3.2 °F -4.2 °F 1.4 °F 92% 30.18 in 1.0 mi SSW 3.5 mph - N/A   Scattered Clouds
9:45 PM 5.0 °F -2.1 °F 1.4 °F 85% 30.18 in 1.5 mi SSW 3.5 mph - N/A   Scattered Clouds
9:46 PM 5.0 °F -2.1 °F 1.4 °F 85% 30.18 in 2.0 mi SSW 3.5 mph - N/A   Scattered Clouds
9:47 PM 5.0 °F -2.1 °F 1.4 °F 85% 30.18 in 3.0 mi SSW 3.5 mph - N/A   Scattered Clouds
9:55 PM 5.0 °F -4.1 °F 1.9 °F 87% 30.19 in 5.0 mi SW 4.6 mph - N/A   Mostly Cloudy
10:55 PM 12.7 °F 0.4 °F 10.0 °F 89% 30.19 in 10.0 mi WSW 9.2 mph - N/A   Overcast
11:55 PM 12.2 °F - 9.5 °F 89% 30.19 in 10.0 mi Calm Calm - N/A   Mostly Cloudy